This demonstration page uses our WeatherBlox Daily Observations layout. Learn more.

Left ArrowRight Arrow

36.19886, -115.1175

Hourly Observations for October 26, 2020

Temp ( °F °C ) Dew Point ( °F °C ) Humidity (%) Winds ( mph kmh ) Pressure ( in mb ) Visibility ( mi km ) Precip ( " mm )
12:53 am 00:53 Clear 49 9.4 7 -13.9 18 18 N 15 24 30.06 1018 10 16 0.00 0.00
1:53 am 01:53 Clear 48 8.9 7 -13.9 19 19 N 13 20 30.09 1019 10 16 0.00 0.00
2:53 am 02:53 Clear 47 8.3 7 -13.9 19 19 NW 24 39 30.11 1020 10 16 0.00 0.00
3:53 am 03:53 Clear 45 7.2 6 -14.4 20 20 NNW 22 35 30.12 1020 10 16 0.00 0.00
4:53 am 04:53 Clear with Light Rain 44 6.7 4 -15.6 19 19 NNW 25 41 30.13 1020 10 16 0.00 0.00
5:53 am 05:53 Clear with Light Rain 43 6.1 4 -15.6 20 20 NNW 23 37 30.14 1021 10 16 0.00 0.00
6:53 am 06:53 Clear with Light Rain 42 5.6 3 -16.1 19 19 NNW 20 31 30.17 1022 10 16 0.00 0.00
7:53 am 07:53 Sunny 43 6.1 2 -16.7 18 18 NNW 24 39 30.19 1023 10 16 0.00 0.00
8:53 am 08:53 Sunny 44 6.7 2 -16.7 17 17 NNW 22 35 30.24 1024 10 16 0.00 0.00
9:53 am 09:53 Sunny 47 8.3 1 -17.2 15 15 NW 22 35 30.26 1025 10 16 0.00 0.00
10:53 am 10:53 Sunny 50 10 -2 -18.9 11 11 NNW 23 37 30.25 1024 10 16 0.00 0.00
11:53 am 11:53 Sunny 53 11.7 -5 -20.6 9 9 NW 17 28 30.23 1024 10 16 0.00 0.00
12:53 pm 12:53 Sunny 55 12.8 -7 -21.7 7 7 NW 7 11 30.19 1022 10 16 0.00 0.00
1:53 pm 13:53 Sunny 56 13.3 -9 -22.8 6 6 VRB 6 9 30.15 1021 10 16 0.00 0.00
2:53 pm 14:53 Sunny 60 15.6 -12 -24.4 5 5 undefined N/A 30.11 1020 10 16 0.00 0.00
3:53 pm 15:53 Sunny 61 16.1 -12 -24.4 5 5 NNW 14 22 30.09 1019 10 16 0.00 0.00
4:53 pm 16:53 Sunny 62 16.7 -12 -24.4 4 4 N 12 19 30.09 1019 10 16 0.00 0.00
5:22 pm 17:22 Sunny 57 13.9 -8 -22.2 6 6 E 14 22 30.01 1016 10 16 0.00 0.00
5:53 pm 17:53 Clear 55 12.8 -7 -21.7 7 7 ENE 12 19 30.11 1020 10 16 0.00 0.00
6:53 pm 18:53 Clear 53 11.7 -5 -20.6 9 9 NE 9 15 30.14 1021 10 16 0.00 0.00
7:53 pm 19:53 Clear 53 11.7 -3 -19.4 10 10 WNW 3 6 30.16 1021 10 16 0.00 0.00
8:53 pm 20:53 Clear 52 11.1 -6 -21.1 9 9 Calm 30.17 1022 10 16 0.00 0.00
9:53 pm 21:53 Clear 49 9.4 -6 -21.1 10 10 Calm 30.18 1022 10 16 0.00 0.00
10:53 pm 22:53 Clear 47 8.3 0 -17.8 14 14 NNE 8 13 30.19 1022 10 16 0.00 0.00
11:53 pm 23:53 Clear 45 7.2 5 -15 19 19 NW 6 9 30.18 1022 10 16 0.00 0.00

Powered by AerisWeather